Time,TemperatureF,DewpointF,PressureIn,WindDirection,WindDirectionDegrees,WindSpeedMPH,WindSpeedGustMPH,Humidity,HourlyPrecipIn,Conditions,Clouds,dailyrainin,SoftwareType,DateUTC
2013-01-01 00:00:00,32.1,28.1,29.95,SSW,210,1.0,14.0,85,0.00,,,0.00,Wunderground v.1.15,2013-01-01 05:00:00,
2013-01-01 00:05:00,32.2,27.9,29.94,WSW,240,2.0,14.0,84,0.00,,,0.00,Wunderground v.1.15,2013-01-01 05:05:00,
2013-01-01 00:10:00,32.2,27.9,29.94,SSW,212,2.0,14.0,84,0.00,,,0.00,Wunderground v.1.15,2013-01-01 05:10:00,
2013-01-01 00:15:00,32.3,28.0,29.94,SW,218,2.0,14.0,84,0.00,,,0.00,Wunderground v.1.15,2013-01-01 05:15:00,
2013-01-01 00:20:00,32.3,27.7,29.93,SSW,210,1.0,14.0,83,0.00,,,0.00,Wunderground v.1.15,2013-01-01 05:20:00,
2013-01-01 00:25:00,32.4,27.8,29.94,SSW,204,1.0,14.0,83,0.00,,,0.00,Wunderground v.1.15,2013-01-01 05:25:00,
2013-01-01 00:30:00,32.5,27.9,29.94,SSW,211,1.0,14.0,83,0.00,,,0.00,Wunderground v.1.15,2013-01-01 05:30:00,
2013-01-01 00:35:00,32.4,27.8,29.93,SSW,210,1.0,14.0,83,0.00,,,0.00,Wunderground v.1.15,2013-01-01 05:35:00,
2013-01-01 00:40:00,32.4,27.8,29.94,SW,215,1.0,1.0,83,0.00,,,0.00,Wunderground v.1.15,2013-01-01 05:40:00,
2013-01-01 00:45:00,32.4,27.8,29.94,West,260,1.0,14.0,83,0.00,,,0.00,Wunderground v.1.15,2013-01-01 05:45:00,
2013-01-01 00:50:00,32.4,27.8,29.93,SSW,208,1.0,14.0,83,0.00,,,0.00,Wunderground v.1.15,2013-01-01 05:50:00,
2013-01-01 00:55:00,32.5,27.9,29.93,SSW,212,2.0,14.0,83,0.00,,,0.00,Wunderground v.1.15,2013-01-01 05:55:00,
2013-01-01 01:00:00,32.5,27.9,29.93,SW,233,2.0,2.0,83,0.00,,,0.00,Wunderground v.1.15,2013-01-01 06:00:00,
2013-01-01 01:05:00,32.4,27.8,29.92,SW,229,1.0,14.0,83,0.00,,,0.00,Wunderground v.1.15,2013-01-01 06:05:00,
2013-01-01 01:10:00,32.5,27.9,29.92,WNW,298,1.0,14.0,83,0.00,,,0.00,Wunderground v.1.15,2013-01-01 06:10:00,
2013-01-01 01:15:00,32.5,27.6,29.92,West,277,1.0,14.0,82,0.00,,,0.00,Wunderground v.1.15,2013-01-01 06:15:00,
2013-01-01 01:20:00,32.6,27.7,29.92,WSW,250,1.0,14.0,82,0.00,,,0.00,Wunderground v.1.15,2013-01-01 06:20:00,
2013-01-01 01:25:00,32.7,27.8,29.92,West,264,2.0,14.0,82,0.00,,,0.00,Wunderground v.1.15,2013-01-01 06:25:00,
2013-01-01 01:30:00,32.8,27.6,29.92,West,269,2.0,2.0,81,0.00,,,0.00,Wunderground v.1.15,2013-01-01 06:30:00,
2013-01-01 01:35:00,32.9,27.7,29.92,West,279,2.0,14.0,81,0.00,,,0.00,Wunderground v.1.15,2013-01-01 06:35:00,
2013-01-01 01:40:00,32.9,27.7,29.92,SSW,211,1.0,1.0,81,0.00,,,0.00,Wunderground v.1.15,2013-01-01 06:40:00,
2013-01-01 01:45:00,32.8,27.6,29.92,NW,306,1.0,4.0,81,0.00,,,0.00,Wunderground v.1.15,2013-01-01 06:45:00,
2013-01-01 01:50:00,32.8,27.6,29.92,WNW,296,1.0,14.0,81,0.00,,,0.00,Wunderground v.1.15,2013-01-01 06:50:00,
2013-01-01 01:55:00,32.8,27.3,29.93,NW,320,2.0,14.0,80,0.00,,,0.00,Wunderground v.1.15,2013-01-01 06:55:00,
2013-01-01 02:00:00,33.0,27.2,29.93,West,266,2.0,2.0,79,0.00,,,0.00,Wunderground v.1.15,2013-01-01 07:00:00,
2013-01-01 02:05:00,33.0,27.2,29.93,North,360,3.0,3.0,79,0.00,,,0.00,Wunderground v.1.15,2013-01-01 07:05:00,
2013-01-01 02:10:00,33.0,26.9,29.93,NW,321,3.0,3.0,78,0.00,,,0.00,Wunderground v.1.15,2013-01-01 07:10:00,
2013-01-01 02:15:00,33.0,26.6,29.94,WNW,298,3.0,14.0,77,0.00,,,0.00,Wunderground v.1.15,2013-01-01 07:15:00,
2013-01-01 02:20:00,33.1,26.7,29.94,NW,322,3.0,14.0,77,0.00,,,0.00,Wunderground v.1.15,2013-01-01 07:20:00,
2013-01-01 02:25:00,33.0,26.6,29.95,NW,322,3.0,14.0,77,0.00,,,0.00,Wunderground v.1.15,2013-01-01 07:25:00,
2013-01-01 02:30:00,32.9,26.5,29.94,NW,322,3.0,3.0,77,0.00,,,0.00,Wunderground v.1.15,2013-01-01 07:30:00,
2013-01-01 02:35:00,32.8,26.4,29.95,NNE,24,2.0,4.0,77,0.00,,,0.00,Wunderground v.1.15,2013-01-01 07:35:00,
2013-01-01 02:40:00,32.8,26.1,29.95,WNW,288,2.0,14.0,76,0.00,,,0.00,Wunderground v.1.15,2013-01-01 07:40:00,
2013-01-01 02:45:00,32.8,26.1,29.96,ESE,118,2.0,14.0,76,0.00,,,0.00,Wunderground v.1.15,2013-01-01 07:45:00,
2013-01-01 02:50:00,32.8,25.7,29.96,WNW,287,2.0,2.0,75,0.00,,,0.00,Wunderground v.1.15,2013-01-01 07:50:00,
2013-01-01 02:55:00,32.8,25.7,29.96,NW,314,2.0,14.0,75,0.00,,,0.00,Wunderground v.1.15,2013-01-01 07:55:00,
2013-01-01 03:00:00,32.7,25.6,29.96,NNE,26,2.0,14.0,75,0.00,,,0.00,Wunderground v.1.15,2013-01-01 08:00:00,
2013-01-01 03:05:00,32.7,25.6,29.96,NNW,328,3.0,14.0,75,0.00,,,0.00,Wunderground v.1.15,2013-01-01 08:05:00,
2013-01-01 03:10:00,32.7,25.6,29.96,NNW,328,2.0,14.0,75,0.00,,,0.00,Wunderground v.1.15,2013-01-01 08:10:00,
2013-01-01 03:15:00,32.5,25.5,29.96,NW,316,2.0,14.0,75,0.00,,,0.00,Wunderground v.1.15,2013-01-01 08:15:00,
2013-01-01 03:20:00,32.5,25.5,29.95,WNW,293,3.0,14.0,75,0.00,,,0.00,Wunderground v.1.15,2013-01-01 08:20:00,
2013-01-01 03:30:00,32.3,25.6,29.96,NNW,346,2.0,2.0,76,0.00,,,0.00,Wunderground v.1.15,2013-01-01 08:30:00,
2013-01-01 03:35:00,32.3,25.6,29.96,NW,314,1.0,14.0,76,0.00,,,0.00,Wunderground v.1.15,2013-01-01 08:35:00,
2013-01-01 03:40:00,32.1,25.4,29.96,North,1,1.0,14.0,76,0.00,,,0.00,Wunderground v.1.15,2013-01-01 08:40:00,
2013-01-01 03:45:00,32.1,25.4,29.96,NNW,328,2.0,14.0,76,0.00,,,0.00,Wunderground v.1.15,2013-01-01 08:45:00,
2013-01-01 03:50:00,32.0,25.3,29.96,NW,323,3.0,14.0,76,0.00,,,0.00,Wunderground v.1.15,2013-01-01 08:50:00,
2013-01-01 03:55:00,31.8,25.4,29.96,NW,326,5.0,14.0,77,0.00,,,0.00,Wunderground v.1.15,2013-01-01 08:55:00,
2013-01-01 04:00:00,31.4,25.3,29.96,NNE,12,5.0,14.0,78,0.00,,,0.00,Wunderground v.1.15,2013-01-01 09:00:00,
2013-01-01 04:05:00,31.1,25.0,29.96,NNW,340,5.0,14.0,78,0.00,,,0.00,Wunderground v.1.15,2013-01-01 09:05:00,
2013-01-01 04:10:00,30.9,25.2,29.97,NNW,335,5.0,5.0,79,0.00,,,0.00,Wunderground v.1.15,2013-01-01 09:10:00,
2013-01-01 04:15:00,30.7,25.0,29.97,North,1,3.0,14.0,79,0.00,,,0.00,Wunderground v.1.15,2013-01-01 09:15:00,
2013-01-01 04:20:00,30.6,24.9,29.97,NNW,339,3.0,14.0,79,0.00,,,0.00,Wunderground v.1.15,2013-01-01 09:20:00,
2013-01-01 04:25:00,30.6,24.9,29.97,NNW,347,3.0,14.0,79,0.00,,,0.00,Wunderground v.1.15,2013-01-01 09:25:00,
2013-01-01 04:30:00,30.4,25.0,29.97,North,9,2.0,14.0,80,0.00,,,0.00,Wunderground v.1.15,2013-01-01 09:30:00,
2013-01-01 04:35:00,30.4,25.0,29.97,NNW,328,2.0,14.0,80,0.00,,,0.00,Wunderground v.1.15,2013-01-01 09:35:00,
2013-01-01 04:40:00,30.3,24.9,29.97,North,356,2.0,14.0,80,0.00,,,0.00,Wunderground v.1.15,2013-01-01 09:40:00,
2013-01-01 04:45:00,30.3,24.9,29.97,North,358,2.0,14.0,80,0.00,,,0.00,Wunderground v.1.15,2013-01-01 09:45:00,
2013-01-01 04:50:00,30.2,24.8,29.97,North,357,3.0,14.0,80,0.00,,,0.00,Wunderground v.1.15,2013-01-01 09:50:00,
2013-01-01 05:00:00,30.1,24.7,29.97,North,9,2.0,14.0,80,0.00,,,0.00,Wunderground v.1.15,2013-01-01 10:00:00,
2013-01-01 05:05:00,30.0,24.6,29.97,North,358,2.0,14.0,80,0.00,,,0.00,Wunderground v.1.15,2013-01-01 10:05:00,
2013-01-01 05:10:00,30.0,24.6,29.97,North,359,3.0,14.0,80,0.00,,,0.00,Wunderground v.1.15,2013-01-01 10:10:00,
2013-01-01 05:15:00,29.9,24.2,29.97,NNW,333,4.0,14.0,79,0.00,,,0.00,Wunderground v.1.15,2013-01-01 10:15:00,
2013-01-01 05:20:00,29.8,23.8,29.97,NNW,347,4.0,14.0,78,0.00,,,0.00,Wunderground v.1.15,2013-01-01 10:20:00,
2013-01-01 05:25:00,29.7,23.7,29.98,NW,317,4.0,14.0,78,0.00,,,0.00,Wunderground v.1.15,2013-01-01 10:25:00,
2013-01-01 05:35:00,29.6,23.3,29.98,NNW,339,3.0,14.0,77,0.00,,,0.00,Wunderground v.1.15,2013-01-01 10:35:00,
2013-01-01 05:40:00,29.5,22.9,29.98,NW,317,3.0,14.0,76,0.00,,,0.00,Wunderground v.1.15,2013-01-01 10:40:00,
2013-01-01 05:45:00,29.4,22.8,29.98,NNE,27,3.0,14.0,76,0.00,,,0.00,Wunderground v.1.15,2013-01-01 10:45:00,
2013-01-01 05:50:00,29.4,22.8,29.99,NNE,14,3.0,14.0,76,0.00,,,0.00,Wunderground v.1.15,2013-01-01 10:50:00,
2013-01-01 05:55:00,29.3,22.7,29.99,NE,39,3.0,14.0,76,0.00,,,0.00,Wunderground v.1.15,2013-01-01 10:55:00,
2013-01-01 06:00:00,29.3,23.0,29.99,SE,136,3.0,3.0,77,0.00,,,0.00,Wunderground v.1.15,2013-01-01 11:00:00,
2013-01-01 06:05:00,29.2,22.9,29.99,NNW,337,2.0,14.0,77,0.00,,,0.00,Wunderground v.1.15,2013-01-01 11:05:00,
2013-01-01 06:10:00,29.2,22.9,29.99,North,356,3.0,3.0,77,0.00,,,0.00,Wunderground v.1.15,2013-01-01 11:10:00,
2013-01-01 06:15:00,29.1,22.8,29.99,NNW,336,2.0,5.0,77,0.00,,,0.00,Wunderground v.1.15,2013-01-01 11:15:00,
2013-01-01 06:20:00,29.0,22.7,29.99,NNW,335,2.0,2.0,77,0.00,,,0.00,Wunderground v.1.15,2013-01-01 11:20:00,
2013-01-01 06:25:00,28.9,22.9,30.00,NW,326,2.0,14.0,78,0.00,,,0.00,Wunderground v.1.15,2013-01-01 11:25:00,
2013-01-01 06:30:00,28.9,22.9,29.99,North,11,1.0,14.0,78,0.00,,,0.00,Wunderground v.1.15,2013-01-01 11:30:00,
2013-01-01 06:35:00,28.8,22.8,29.99,NNW,338,2.0,14.0,78,0.00,,,0.00,Wunderground v.1.15,2013-01-01 11:35:00,
2013-01-01 06:40:00,28.8,22.8,29.99,NW,324,2.0,14.0,78,0.00,,,0.00,Wunderground v.1.15,2013-01-01 11:40:00,
2013-01-01 06:45:00,28.7,22.7,29.99,NNW,336,2.0,14.0,78,0.00,,,0.00,Wunderground v.1.15,2013-01-01 11:45:00,
2013-01-01 06:50:00,28.7,22.7,30.00,West,274,2.0,14.0,78,0.00,,,0.00,Wunderground v.1.15,2013-01-01 11:50:00,
2013-01-01 06:55:00,28.6,22.6,30.00,WNW,301,2.0,14.0,78,0.00,,,0.00,Wunderground v.1.15,2013-01-01 11:55:00,
2013-01-01 07:00:00,28.6,22.6,30.00,NNW,338,2.0,7.0,78,0.00,,---,0.00,VWS V14.01,2013-01-01 12:00:00,
2013-01-01 07:05:00,28.6,22.3,30.00,North,1,2.0,14.0,77,0.00,,,0.00,Wunderground v.1.15,2013-01-01 12:05:00,
2013-01-01 07:10:00,28.6,22.0,30.00,NW,326,3.0,3.0,76,0.00,,,0.00,Wunderground v.1.15,2013-01-01 12:10:00,
2013-01-01 07:15:00,28.6,22.0,30.00,West,277,3.0,14.0,76,0.00,,,0.00,Wunderground v.1.15,2013-01-01 12:15:00,
2013-01-01 07:20:00,28.6,22.0,30.00,NW,316,2.0,14.0,76,0.00,,,0.00,Wunderground v.1.15,2013-01-01 12:20:00,
2013-01-01 07:25:00,28.5,21.9,30.00,NW,326,2.0,14.0,76,0.00,,,0.00,Wunderground v.1.15,2013-01-01 12:25:00,
2013-01-01 07:30:00,28.4,21.2,30.00,NW,317,2.0,2.0,74,0.00,,,0.00,Wunderground v.1.15,2013-01-01 12:30:00,
2013-01-01 07:35:00,28.3,21.1,29.99,WNW,291,2.0,7.0,74,0.00,,,0.00,Wunderground v.1.15,2013-01-01 12:35:00,
2013-01-01 07:40:00,28.3,20.7,30.00,NNW,328,3.0,14.0,73,0.00,,,0.00,Wunderground v.1.15,2013-01-01 12:40:00,
2013-01-01 07:45:00,28.2,20.7,30.00,NW,319,2.0,14.0,73,0.00,,,0.00,Wunderground v.1.15,2013-01-01 12:45:00,
2013-01-01 07:50:00,28.2,20.7,30.00,NW,308,2.0,14.0,73,0.00,,,0.00,Wunderground v.1.15,2013-01-01 12:50:00,
2013-01-01 07:55:00,28.1,20.2,30.00,North,6,2.0,14.0,72,0.00,,,0.00,Wunderground v.1.15,2013-01-01 12:55:00,
2013-01-01 08:00:00,28.1,20.2,30.00,West,276,1.0,1.0,72,0.00,,,0.00,Wunderground v.1.15,2013-01-01 13:00:00,
2013-01-01 08:10:00,28.0,20.1,30.01,North,350,1.0,1.0,72,0.00,,,0.00,Wunderground v.1.15,2013-01-01 13:10:00,
2013-01-01 08:15:00,28.0,20.1,30.01,NNW,336,1.0,14.0,72,0.00,,,0.00,Wunderground v.1.15,2013-01-01 13:15:00,
2013-01-01 08:20:00,28.0,20.1,30.01,WNW,301,1.0,14.0,72,0.00,,,0.00,Wunderground v.1.15,2013-01-01 13:20:00,
2013-01-01 08:25:00,27.9,20.0,30.01,NE,43,1.0,14.0,72,0.00,,,0.00,Wunderground v.1.15,2013-01-01 13:25:00,
2013-01-01 08:30:00,27.8,19.6,30.01,West,279,1.0,1.0,71,0.00,,,0.00,Wunderground v.1.15,2013-01-01 13:30:00,
2013-01-01 08:35:00,27.8,19.6,30.02,NW,326,1.0,4.0,71,0.00,,,0.00,Wunderground v.1.15,2013-01-01 13:35:00,
2013-01-01 08:40:00,27.8,19.3,30.02,WNW,300,2.0,2.0,70,0.00,,,0.00,Wunderground v.1.15,2013-01-01 13:40:00,
2013-01-01 08:45:00,27.7,19.2,30.02,NW,321,2.0,14.0,70,0.00,,,0.00,Wunderground v.1.15,2013-01-01 13:45:00,
2013-01-01 08:50:00,27.7,19.2,30.02,NNE,32,2.0,14.0,70,0.00,,,0.00,Wunderground v.1.15,2013-01-01 13:50:00,
2013-01-01 08:55:00,27.7,19.2,30.02,WNW,288,2.0,14.0,70,0.00,,,0.00,Wunderground v.1.15,2013-01-01 13:55:00,
2013-01-01 09:00:00,27.7,19.2,30.03,NW,312,3.0,3.0,70,0.00,,,0.00,Wunderground v.1.15,2013-01-01 14:00:00,
2013-01-01 09:05:00,27.6,19.1,30.03,NNW,340,2.0,14.0,70,0.00,,,0.00,Wunderground v.1.15,2013-01-01 14:05:00,
2013-01-01 09:10:00,27.6,19.1,30.03,WNW,298,2.0,14.0,70,0.00,,,0.00,Wunderground v.1.15,2013-01-01 14:10:00,
2013-01-01 09:15:00,27.5,20.6,30.03,North,350,3.0,14.0,75,0.00,,,0.00,Wunderground v.1.15,2013-01-01 14:15:00,
2013-01-01 09:20:00,27.0,21.1,30.03,NW,317,4.0,4.0,78,0.00,,,0.00,Wunderground v.1.15,2013-01-01 14:20:00,
2013-01-01 09:25:00,26.7,21.4,30.04,NNW,345,4.0,14.0,80,0.00,,,0.00,Wunderground v.1.15,2013-01-01 14:25:00,
2013-01-01 09:30:00,26.5,21.5,30.03,NW,323,4.0,4.0,81,0.00,,,0.00,Wunderground v.1.15,2013-01-01 14:30:00,
2013-01-01 09:35:00,26.4,21.7,30.03,NNW,340,4.0,14.0,82,0.00,,,0.00,Wunderground v.1.15,2013-01-01 14:35:00,
2013-01-01 09:40:00,26.2,21.7,30.03,NNW,334,4.0,4.0,83,0.00,,,0.00,Wunderground v.1.15,2013-01-01 14:40:00,
2013-01-01 09:45:00,26.0,22.1,30.03,NNE,17,3.0,14.0,85,0.00,,,0.00,Wunderground v.1.15,2013-01-01 14:45:00,
2013-01-01 09:50:00,25.8,22.2,30.02,North,1,2.0,2.0,86,0.00,,,0.00,Wunderground v.1.15,2013-01-01 14:50:00,
2013-01-01 09:55:00,25.8,22.2,30.03,NNW,340,2.0,3.0,86,0.00,,,0.00,Wunderground v.1.15,2013-01-01 14:55:00,
2013-01-01 10:00:00,25.9,22.3,30.03,North,354,2.0,14.0,86,0.00,,,0.00,Wunderground v.1.15,2013-01-01 15:00:00,
2013-01-01 10:05:00,26.1,22.5,30.03,NNW,343,2.0,14.0,86,0.00,,,0.00,Wunderground v.1.15,2013-01-01 15:05:00,
2013-01-01 10:10:00,26.2,22.3,30.03,North,5,2.0,14.0,85,0.00,,,0.00,Wunderground v.1.15,2013-01-01 15:10:00,
2013-01-01 10:15:00,26.3,22.4,30.03,NNW,348,2.0,14.0,85,0.00,,,0.00,Wunderground v.1.15,2013-01-01 15:15:00,
2013-01-01 10:20:00,26.2,22.3,30.04,North,5,3.0,3.0,85,0.00,,,0.00,Wunderground v.1.15,2013-01-01 15:20:00,
2013-01-01 10:25:00,25.9,22.3,30.04,NNW,333,4.0,4.0,86,0.00,,,0.00,Wunderground v.1.15,2013-01-01 15:25:00,
2013-01-01 10:30:00,25.7,22.4,30.05,NW,315,3.0,14.0,87,0.00,,,0.00,Wunderground v.1.15,2013-01-01 15:30:00,
2013-01-01 10:35:00,25.5,21.9,30.05,NW,321,4.0,14.0,86,0.00,,,0.00,Wunderground v.1.15,2013-01-01 15:35:00,
2013-01-01 10:40:00,25.3,21.7,30.05,NNW,338,5.0,5.0,86,0.00,,,0.00,Wunderground v.1.15,2013-01-01 15:40:00,
2013-01-01 10:45:00,25.0,21.1,30.06,NNE,20,5.0,14.0,85,0.00,,,0.00,Wunderground v.1.15,2013-01-01 15:45:00,
2013-01-01 10:50:00,25.0,21.1,30.05,North,356,4.0,4.0,85,0.00,,,0.00,Wunderground v.1.15,2013-01-01 15:50:00,
2013-01-01 10:55:00,25.2,21.3,30.05,NNE,32,3.0,14.0,85,0.00,,,0.00,Wunderground v.1.15,2013-01-01 15:55:00,
2013-01-01 11:00:00,25.4,21.5,30.05,NE,34,3.0,14.0,85,0.00,,,0.00,Wunderground v.1.15,2013-01-01 16:00:00,
2013-01-01 11:05:00,25.4,21.5,30.05,North,352,3.0,14.0,85,0.00,,,0.00,Wunderground v.1.15,2013-01-01 16:05:00,
2013-01-01 11:10:00,25.1,21.5,30.05,NNE,33,4.0,4.0,86,0.00,,,0.00,Wunderground v.1.15,2013-01-01 16:10:00,
2013-01-01 11:15:00,24.9,21.3,30.05,North,354,5.0,6.0,86,0.00,,,0.00,Wunderground v.1.15,2013-01-01 16:15:00,
2013-01-01 11:20:00,24.8,21.5,30.05,NNW,334,5.0,5.0,87,0.00,,,0.00,Wunderground v.1.15,2013-01-01 16:20:00,
2013-01-01 11:25:00,24.8,21.2,30.04,North,356,4.0,6.0,86,0.00,,,0.00,Wunderground v.1.15,2013-01-01 16:25:00,
2013-01-01 11:30:00,24.4,21.1,30.05,North,359,5.0,5.0,87,0.00,,,0.00,Wunderground v.1.15,2013-01-01 16:30:00,
2013-01-01 11:35:00,23.7,20.7,30.05,NNE,23,6.0,6.0,88,0.00,,,0.00,Wunderground v.1.15,2013-01-01 16:35:00,
2013-01-01 11:40:00,23.0,19.7,30.04,NW,314,7.0,7.0,87,0.00,,,0.00,Wunderground v.1.15,2013-01-01 16:40:00,
2013-01-01 11:45:00,22.8,20.0,30.05,North,358,7.0,14.0,89,0.00,,,0.00,Wunderground v.1.15,2013-01-01 16:45:00,
2013-01-01 11:50:00,22.6,19.3,30.05,North,356,6.0,14.0,87,0.00,,,0.00,Wunderground v.1.15,2013-01-01 16:50:00,
2013-01-01 11:55:00,22.5,18.9,30.05,North,3,7.0,14.0,86,0.00,,,0.00,Wunderground v.1.15,2013-01-01 16:55:00,
2013-01-01 12:00:00,22.5,18.7,30.05,North,354,7.0,7.0,85,0.00,,,0.00,Wunderground v.1.15,2013-01-01 17:00:00,
2013-01-01 12:05:00,22.8,19.2,30.05,NNW,345,6.0,14.0,86,0.00,,,0.00,Wunderground v.1.15,2013-01-01 17:05:00,
2013-01-01 12:10:00,22.9,19.3,30.05,NNW,328,5.0,14.0,86,0.00,,,0.00,Wunderground v.1.15,2013-01-01 17:10:00,
2013-01-01 12:15:00,22.9,19.1,30.05,NNE,18,6.0,14.0,85,0.00,,,0.00,Wunderground v.1.15,2013-01-01 17:15:00,
2013-01-01 12:20:00,23.0,18.6,30.05,NW,321,7.0,14.0,83,0.00,,,0.00,Wunderground v.1.15,2013-01-01 17:20:00,
2013-01-01 12:25:00,23.3,18.6,30.04,NE,36,7.0,14.0,82,0.00,,,0.00,Wunderground v.1.15,2013-01-01 17:25:00,
2013-01-01 12:30:00,23.3,18.0,30.03,NNE,33,7.0,7.0,80,0.00,,,0.00,Wunderground v.1.15,2013-01-01 17:30:00,
2013-01-01 12:35:00,23.2,18.2,30.03,SW,233,6.0,14.0,81,0.00,,,0.00,Wunderground v.1.15,2013-01-01 17:35:00,
2013-01-01 12:40:00,23.2,18.5,30.03,NE,41,6.0,6.0,82,0.00,,,0.00,Wunderground v.1.15,2013-01-01 17:40:00,
2013-01-01 12:45:00,23.1,18.4,30.03,NW,320,5.0,14.0,82,0.00,,,0.00,Wunderground v.1.15,2013-01-01 17:45:00,
2013-01-01 12:50:00,23.1,18.1,30.04,NNE,30,5.0,14.0,81,0.00,,,0.00,Wunderground v.1.15,2013-01-01 17:50:00,
2013-01-01 12:55:00,23.1,17.6,30.04,NNW,333,5.0,14.0,79,0.00,,,0.00,Wunderground v.1.15,2013-01-01 17:55:00,
2013-01-01 13:00:00,23.3,17.7,30.04,NNE,32,5.0,14.0,79,0.00,,,0.00,Wunderground v.1.15,2013-01-01 18:00:00,
2013-01-01 13:05:00,23.3,17.5,30.04,NW,319,5.0,14.0,78,0.00,,,0.00,Wunderground v.1.15,2013-01-01 18:05:00,
2013-01-01 13:10:00,23.2,17.7,30.04,North,357,6.0,6.0,79,0.00,,,0.00,Wunderground v.1.15,2013-01-01 18:10:00,
2013-01-01 13:15:00,23.1,17.6,30.04,North,351,6.0,8.0,79,0.00,,,0.00,Wunderground v.1.15,2013-01-01 18:15:00,
2013-01-01 13:20:00,23.1,17.8,30.03,NNW,345,5.0,5.0,80,0.00,,,0.00,Wunderground v.1.15,2013-01-01 18:20:00,
2013-01-01 13:25:00,23.1,17.8,30.03,North,5,5.0,14.0,80,0.00,,,0.00,Wunderground v.1.15,2013-01-01 18:25:00,
2013-01-01 13:30:00,23.1,18.1,30.03,NNW,338,5.0,5.0,81,0.00,,,0.00,Wunderground v.1.15,2013-01-01 18:30:00,
2013-01-01 13:35:00,23.1,17.8,30.02,NW,311,5.0,14.0,80,0.00,,,0.00,Wunderground v.1.15,2013-01-01 18:35:00,
2013-01-01 13:40:00,23.0,17.5,30.02,NNW,339,4.0,4.0,79,0.00,,,0.00,Wunderground v.1.15,2013-01-01 18:40:00,
2013-01-01 13:45:00,22.9,17.1,30.02,NNW,338,5.0,5.0,78,0.00,,,0.00,Wunderground v.1.15,2013-01-01 18:45:00,
2013-01-01 13:50:00,22.7,16.9,30.02,NNW,330,6.0,14.0,78,0.00,,,0.00,Wunderground v.1.15,2013-01-01 18:50:00,
2013-01-01 13:55:00,22.6,16.8,30.01,NNE,16,7.0,14.0,78,0.00,,,0.00,Wunderground v.1.15,2013-01-01 18:55:00,
2013-01-01 14:00:00,22.5,17.0,30.02,NNE,13,6.0,6.0,79,0.00,,,0.00,Wunderground v.1.15,2013-01-01 19:00:00,
2013-01-01 14:05:00,22.8,17.3,30.02,NNW,345,4.0,14.0,79,0.00,,,0.00,Wunderground v.1.15,2013-01-01 19:05:00,
2013-01-01 14:10:00,22.7,17.5,30.01,NNW,336,4.0,14.0,80,0.00,,,0.00,Wunderground v.1.15,2013-01-01 19:10:00,
2013-01-01 14:15:00,22.4,17.7,30.02,North,1,6.0,14.0,82,0.00,,,0.00,Wunderground v.1.15,2013-01-01 19:15:00,
2013-01-01 14:20:00,21.7,16.8,30.03,NNW,339,7.0,14.0,81,0.00,,,0.00,Wunderground v.1.15,2013-01-01 19:20:00,
2013-01-01 14:25:00,21.4,16.2,30.03,NNW,334,7.0,14.0,80,0.00,,,0.00,Wunderground v.1.15,2013-01-01 19:25:00,
2013-01-01 14:30:00,21.3,16.1,30.03,NNW,328,6.0,6.0,80,0.00,,,0.00,Wunderground v.1.15,2013-01-01 19:30:00,
2013-01-01 14:35:00,21.2,16.0,30.03,NNW,347,5.0,14.0,80,0.00,,,0.00,Wunderground v.1.15,2013-01-01 19:35:00,
2013-01-01 14:40:00,21.2,16.0,30.04,North,4,4.0,14.0,80,0.00,,,0.00,Wunderground v.1.15,2013-01-01 19:40:00,
2013-01-01 14:45:00,21.3,16.1,30.03,NNE,23,4.0,14.0,80,0.00,,,0.00,Wunderground v.1.15,2013-01-01 19:45:00,
2013-01-01 14:50:00,21.5,15.7,30.04,NNE,22,5.0,14.0,78,0.00,,,0.00,Wunderground v.1.15,2013-01-01 19:50:00,
2013-01-01 14:55:00,21.5,15.7,30.04,NNW,331,5.0,14.0,78,0.00,,,0.00,Wunderground v.1.15,2013-01-01 19:55:00,
2013-01-01 15:00:00,21.5,16.0,30.05,NNE,24,5.0,14.0,79,0.00,,,0.00,Wunderground v.1.15,2013-01-01 20:00:00,
2013-01-01 15:05:00,21.4,15.9,30.05,NNW,340,4.0,14.0,79,0.00,,,0.00,Wunderground v.1.15,2013-01-01 20:05:00,
2013-01-01 15:10:00,21.2,15.7,30.05,NNW,332,4.0,14.0,79,0.00,,,0.00,Wunderground v.1.15,2013-01-01 20:10:00,
2013-01-01 15:15:00,21.0,15.8,30.05,NNW,333,4.0,14.0,80,0.00,,,0.00,Wunderground v.1.15,2013-01-01 20:15:00,
2013-01-01 15:20:00,20.9,15.7,30.06,NNW,328,3.0,3.0,80,0.00,,,0.00,Wunderground v.1.15,2013-01-01 20:20:00,
2013-01-01 15:25:00,20.9,15.1,30.06,NNW,339,3.0,5.0,78,0.00,,,0.00,Wunderground v.1.15,2013-01-01 20:25:00,
2013-01-01 15:30:00,20.9,13.9,30.06,NW,319,5.0,5.0,74,0.00,,,0.00,Wunderground v.1.15,2013-01-01 20:30:00,
2013-01-01 15:35:00,20.9,13.3,30.05,North,358,6.0,6.0,72,0.00,,,0.00,Wunderground v.1.15,2013-01-01 20:35:00,
2013-01-01 15:40:00,20.9,13.0,30.05,NNW,339,5.0,5.0,71,0.00,,,0.00,Wunderground v.1.15,2013-01-01 20:40:00,
2013-01-01 15:45:00,20.8,12.9,30.05,North,351,5.0,14.0,71,0.00,,,0.00,Wunderground v.1.15,2013-01-01 20:45:00,
2013-01-01 15:50:00,20.7,12.8,30.06,NNW,344,4.0,4.0,71,0.00,,,0.00,Wunderground v.1.15,2013-01-01 20:50:00,
2013-01-01 16:00:00,20.5,12.6,30.06,North,356,3.0,14.0,71,0.00,,,0.00,Wunderground v.1.15,2013-01-01 21:00:00,
2013-01-01 16:05:00,20.5,12.3,30.06,NW,307,3.0,14.0,70,0.00,,,0.00,Wunderground v.1.15,2013-01-01 21:05:00,
2013-01-01 16:10:00,20.4,11.8,30.07,NNW,346,4.0,14.0,69,0.00,,,0.00,Wunderground v.1.15,2013-01-01 21:10:00,
2013-01-01 16:15:00,20.2,11.3,30.07,NNW,334,4.0,14.0,68,0.00,,,0.00,Wunderground v.1.15,2013-01-01 21:15:00,
2013-01-01 16:20:00,20.0,11.5,30.07,NE,51,2.0,14.0,69,0.00,,,0.00,Wunderground v.1.15,2013-01-01 21:20:00,
2013-01-01 16:25:00,19.8,10.9,30.07,North,359,2.0,14.0,68,0.00,,,0.00,Wunderground v.1.15,2013-01-01 21:25:00,
2013-01-01 16:30:00,19.6,11.1,30.07,NNE,22,1.0,1.0,69,0.00,,,0.00,Wunderground v.1.15,2013-01-01 21:30:00,
2013-01-01 16:35:00,19.3,10.8,30.07,NNE,27,2.0,2.0,69,0.00,,,0.00,Wunderground v.1.15,2013-01-01 21:35:00,
2013-01-01 16:40:00,19.1,10.9,30.07,NW,323,2.0,2.0,70,0.00,,,0.00,Wunderground v.1.15,2013-01-01 21:40:00,
2013-01-01 16:45:00,18.9,11.0,30.06,NNE,13,2.0,14.0,71,0.00,,,0.00,Wunderground v.1.15,2013-01-01 21:45:00,
2013-01-01 16:50:00,18.6,10.8,30.06,North,359,2.0,2.0,71,0.00,,,0.00,Wunderground v.1.15,2013-01-01 21:50:00,
2013-01-01 16:55:00,18.4,10.9,30.07,NW,322,2.0,14.0,72,0.00,,,0.00,Wunderground v.1.15,2013-01-01 21:55:00,
2013-01-01 17:00:00,18.2,10.7,30.07,NNW,328,2.0,2.0,72,0.00,,,0.00,Wunderground v.1.15,2013-01-01 22:00:00,
2013-01-01 17:05:00,17.9,10.7,30.08,NW,322,1.0,14.0,73,0.00,,,0.00,Wunderground v.1.15,2013-01-01 22:05:00,
2013-01-01 17:10:00,17.6,10.4,30.08,WNW,298,0.0,14.0,73,0.00,,,0.00,Wunderground v.1.15,2013-01-01 22:10:00,
2013-01-01 17:15:00,17.5,10.3,30.09,WNW,293,0.0,14.0,73,0.00,,,0.00,Wunderground v.1.15,2013-01-01 22:15:00,
2013-01-01 17:20:00,17.4,10.2,30.09,NW,316,0.0,14.0,73,0.00,,,0.00,Wunderground v.1.15,2013-01-01 22:20:00,
2013-01-01 17:25:00,17.1,10.2,30.09,WNW,302,0.0,14.0,74,0.00,,,0.00,Wunderground v.1.15,2013-01-01 22:25:00,
2013-01-01 17:35:00,16.4,9.9,30.09,WNW,283,0.0,14.0,75,0.00,,,0.00,Wunderground v.1.15,2013-01-01 22:35:00,
2013-01-01 17:40:00,16.0,9.5,30.09,WNW,283,0.0,14.0,75,0.00,,,0.00,Wunderground v.1.15,2013-01-01 22:40:00,
2013-01-01 17:45:00,15.5,9.3,30.09,WNW,283,0.0,14.0,76,0.00,,,0.00,Wunderground v.1.15,2013-01-01 22:45:00,
2013-01-01 17:50:00,14.9,9.0,30.10,WNW,283,0.0,14.0,77,0.00,,,0.00,Wunderground v.1.15,2013-01-01 22:50:00,
2013-01-01 17:55:00,14.6,9.0,30.10,WNW,283,0.0,14.0,78,0.00,,,0.00,Wunderground v.1.15,2013-01-01 22:55:00,
2013-01-01 18:00:00,14.0,8.7,30.09,WNW,295,0.0,14.0,79,0.00,,,0.00,Wunderground v.1.15,2013-01-01 23:00:00,
2013-01-01 18:05:00,13.8,8.5,30.10,WNW,295,0.0,14.0,79,0.00,,,0.00,Wunderground v.1.15,2013-01-01 23:05:00,
2013-01-01 18:10:00,13.3,8.0,30.11,WNW,283,0.0,14.0,79,0.00,,,0.00,Wunderground v.1.15,2013-01-01 23:10:00,
2013-01-01 18:15:00,12.8,8.1,30.11,WNW,283,0.0,14.0,81,0.00,,,0.00,Wunderground v.1.15,2013-01-01 23:15:00,
2013-01-01 18:20:00,12.4,8.0,30.11,WNW,283,0.0,14.0,82,0.00,,,0.00,Wunderground v.1.15,2013-01-01 23:20:00,
2013-01-01 18:25:00,12.2,8.3,30.11,WNW,285,0.0,14.0,84,0.00,,,0.00,Wunderground v.1.15,2013-01-01 23:25:00,
2013-01-01 18:30:00,11.8,7.4,30.11,WNW,284,0.0,14.0,82,0.00,,,0.00,Wunderground v.1.15,2013-01-01 23:30:00,
2013-01-01 18:35:00,11.3,7.1,30.11,SW,217,0.0,14.0,83,0.00,,,0.00,Wunderground v.1.15,2013-01-01 23:35:00,
2013-01-01 18:40:00,10.7,6.6,30.12,ESE,113,0.0,14.0,83,0.00,,,0.00,Wunderground v.1.15,2013-01-01 23:40:00,
2013-01-01 18:45:00,10.6,7.0,30.11,ESE,113,0.0,14.0,85,0.00,,,0.00,Wunderground v.1.15,2013-01-01 23:45:00,
2013-01-01 18:50:00,10.2,6.1,30.11,East,82,0.0,14.0,83,0.00,,,0.00,Wunderground v.1.15,2013-01-01 23:50:00,
2013-01-01 18:55:00,10.2,6.6,30.12,East,82,0.0,14.0,85,0.00,,,0.00,Wunderground v.1.15,2013-01-01 23:55:00,
2013-01-01 19:00:00,10.3,6.7,30.12,ESE,103,0.0,14.0,85,0.00,,,0.00,Wunderground v.1.15,2013-01-02 00:00:00,
2013-01-01 19:05:00,10.4,6.5,30.12,East,95,0.0,14.0,84,0.00,,,0.00,Wunderground v.1.15,2013-01-02 00:05:00,
2013-01-01 19:10:00,10.3,6.2,30.12,East,94,0.0,14.0,83,0.00,,,0.00,Wunderground v.1.15,2013-01-02 00:10:00,
2013-01-01 19:15:00,9.7,5.8,30.12,SW,217,0.0,14.0,84,0.00,,,0.00,Wunderground v.1.15,2013-01-02 00:15:00,
2013-01-01 19:20:00,9.2,5.6,30.12,SSW,205,1.0,1.0,85,0.00,,,0.00,Wunderground v.1.15,2013-01-02 00:20:00,
2013-01-01 19:25:00,8.9,5.8,30.11,SSE,162,0.0,14.0,87,0.00,,,0.00,Wunderground v.1.15,2013-01-02 00:25:00,
2013-01-01 19:30:00,8.9,5.8,30.11,SSW,211,0.0,14.0,87,0.00,,,0.00,Wunderground v.1.15,2013-01-02 00:30:00,
2013-01-01 19:35:00,8.7,5.6,30.11,South,170,0.0,14.0,87,0.00,,,0.00,Wunderground v.1.15,2013-01-02 00:35:00,
2013-01-01 19:40:00,8.5,5.2,30.11,South,170,0.0,14.0,86,0.00,,,0.00,Wunderground v.1.15,2013-01-02 00:40:00,
2013-01-01 19:45:00,8.5,5.7,30.11,South,184,0.0,14.0,88,0.00,,,0.00,Wunderground v.1.15,2013-01-02 00:45:00,
2013-01-01 19:50:00,9.2,6.4,30.11,SSW,205,1.0,14.0,88,0.00,,,0.00,Wunderground v.1.15,2013-01-02 00:50:00,
2013-01-01 19:55:00,9.6,6.5,30.11,South,184,2.0,14.0,87,0.00,,,0.00,Wunderground v.1.15,2013-01-02 00:55:00,
2013-01-01 20:00:00,9.6,6.3,30.11,SSE,166,1.0,14.0,86,0.00,,,0.00,Wunderground v.1.15,2013-01-02 01:00:00,
2013-01-01 20:05:00,9.6,6.0,30.11,SSE,153,2.0,14.0,85,0.00,,,0.00,Wunderground v.1.15,2013-01-02 01:05:00,
2013-01-01 20:10:00,9.3,5.7,30.11,SSE,153,2.0,14.0,85,0.00,,,0.00,Wunderground v.1.15,2013-01-02 01:10:00,
2013-01-01 20:15:00,9.8,6.5,30.11,SSE,168,1.0,14.0,86,0.00,,,0.00,Wunderground v.1.15,2013-01-02 01:15:00,
2013-01-01 20:20:00,10.0,6.6,30.11,South,186,1.0,14.0,86,0.00,,,0.00,Wunderground v.1.15,2013-01-02 01:20:00,
2013-01-01 20:25:00,10.4,7.3,30.11,SSW,204,1.0,14.0,87,0.00,,,0.00,Wunderground v.1.15,2013-01-02 01:25:00,
2013-01-01 20:30:00,10.9,7.5,30.11,SSE,158,1.0,14.0,86,0.00,,,0.00,Wunderground v.1.15,2013-01-02 01:30:00,
2013-01-01 20:35:00,10.6,6.5,30.11,SSW,211,1.0,14.0,83,0.00,,,0.00,Wunderground v.1.15,2013-01-02 01:35:00,
2013-01-01 20:40:00,9.2,4.8,30.11,SSW,211,0.0,14.0,82,0.00,,,0.00,Wunderground v.1.15,2013-01-02 01:40:00,
2013-01-01 20:45:00,8.3,4.5,30.11,SSW,196,0.0,14.0,84,0.00,,,0.00,Wunderground v.1.15,2013-01-02 01:45:00,
2013-01-01 20:50:00,7.8,4.2,30.11,WSW,252,0.0,14.0,85,0.00,,,0.00,Wunderground v.1.15,2013-01-02 01:50:00,
2013-01-01 20:55:00,7.1,3.5,30.11,SW,229,0.0,14.0,85,0.00,,,0.00,Wunderground v.1.15,2013-01-02 01:55:00,
2013-01-01 21:00:00,6.8,3.5,30.11,SSW,200,1.0,14.0,86,0.00,,,0.00,Wunderground v.1.15,2013-01-02 02:00:00,
2013-01-01 21:05:00,6.5,3.2,30.11,South,174,1.0,14.0,86,0.00,,,0.00,Wunderground v.1.15,2013-01-02 02:05:00,
2013-01-01 21:10:00,6.0,2.7,30.11,SSE,158,0.0,14.0,86,0.00,,,0.00,Wunderground v.1.15,2013-01-02 02:10:00,
2013-01-01 21:15:00,5.7,2.4,30.11,SW,233,0.0,14.0,86,0.00,,,0.00,Wunderground v.1.15,2013-01-02 02:15:00,
2013-01-01 21:20:00,5.2,1.9,30.11,ESE,113,0.0,14.0,86,0.00,,,0.00,Wunderground v.1.15,2013-01-02 02:20:00,
2013-01-01 21:25:00,5.0,2.0,30.11,SSE,153,0.0,14.0,87,0.00,,,0.00,Wunderground v.1.15,2013-01-02 02:25:00,
2013-01-01 21:30:00,4.9,1.9,30.12,SSE,155,0.0,14.0,87,0.00,,,0.00,Wunderground v.1.15,2013-01-02 02:30:00,
2013-01-01 21:35:00,4.9,2.1,30.11,ESE,110,1.0,14.0,88,0.00,,,0.00,Wunderground v.1.15,2013-01-02 02:35:00,
2013-01-01 21:40:00,4.9,2.1,30.12,South,183,1.0,14.0,88,0.00,,,0.00,Wunderground v.1.15,2013-01-02 02:40:00,
2013-01-01 21:45:00,4.9,1.9,30.12,SSW,207,1.0,14.0,87,0.00,,,0.00,Wunderground v.1.15,2013-01-02 02:45:00,
2013-01-01 21:50:00,4.7,1.7,30.12,SSW,197,0.0,14.0,87,0.00,,,0.00,Wunderground v.1.15,2013-01-02 02:50:00,
2013-01-01 21:55:00,4.5,1.5,30.12,SE,129,0.0,14.0,87,0.00,,,0.00,Wunderground v.1.15,2013-01-02 02:55:00,
2013-01-01 22:00:00,4.2,0.9,30.12,SSE,150,0.0,14.0,86,0.00,,,0.00,Wunderground v.1.15,2013-01-02 03:00:00,
2013-01-01 22:05:00,4.1,1.1,30.11,South,169,0.0,14.0,87,0.00,,,0.00,Wunderground v.1.15,2013-01-02 03:05:00,
2013-01-01 22:15:00,4.8,2.3,30.11,SSW,204,1.0,14.0,89,0.00,,,0.00,Wunderground v.1.15,2013-01-02 03:15:00,
2013-01-01 22:20:00,5.1,2.3,30.11,SSE,162,2.0,14.0,88,0.00,,,0.00,Wunderground v.1.15,2013-01-02 03:20:00,
2013-01-01 22:25:00,5.3,2.5,30.11,SSE,167,2.0,14.0,88,0.00,,,0.00,Wunderground v.1.15,2013-01-02 03:25:00,
2013-01-01 22:30:00,5.4,2.4,30.11,SSW,193,1.0,14.0,87,0.00,,,0.00,Wunderground v.1.15,2013-01-02 03:30:00,
2013-01-01 22:35:00,5.7,2.9,30.12,SSW,201,1.0,14.0,88,0.00,,,0.00,Wunderground v.1.15,2013-01-02 03:35:00,
2013-01-01 22:40:00,5.8,2.8,30.11,SW,226,3.0,14.0,87,0.00,,,0.00,Wunderground v.1.15,2013-01-02 03:40:00,
2013-01-01 22:50:00,4.6,1.1,30.12,SSW,198,3.0,14.0,85,0.00,,,0.00,Wunderground v.1.15,2013-01-02 03:50:00,
2013-01-01 22:55:00,4.5,1.2,30.12,SSW,194,1.0,14.0,86,0.00,,,0.00,Wunderground v.1.15,2013-01-02 03:55:00,
2013-01-01 23:00:00,4.6,1.6,30.12,SW,221,1.0,14.0,87,0.00,,,0.00,Wunderground v.1.15,2013-01-02 04:00:00,
2013-01-01 23:05:00,4.7,1.7,30.12,SSW,207,2.0,14.0,87,0.00,,,0.00,Wunderground v.1.15,2013-01-02 04:05:00,
2013-01-01 23:10:00,4.8,1.8,30.12,SSW,205,1.0,1.0,87,0.00,,,0.00,Wunderground v.1.15,2013-01-02 04:10:00,
2013-01-01 23:15:00,4.8,1.8,30.12,ESE,111,1.0,14.0,87,0.00,,,0.00,Wunderground v.1.15,2013-01-02 04:15:00,
2013-01-01 23:20:00,5.0,2.0,30.12,SSE,159,1.0,1.0,87,0.00,,,0.00,Wunderground v.1.15,2013-01-02 04:20:00,
2013-01-01 23:25:00,5.3,2.5,30.12,South,181,1.0,14.0,88,0.00,,,0.00,Wunderground v.1.15,2013-01-02 04:25:00,
2013-01-01 23:30:00,5.8,3.0,30.12,SE,143,1.0,14.0,88,0.00,,,0.00,Wunderground v.1.15,2013-01-02 04:30:00,
2013-01-01 23:35:00,6.2,3.4,30.12,SW,232,1.0,14.0,88,0.00,,,0.00,Wunderground v.1.15,2013-01-02 04:35:00,
2013-01-01 23:40:00,6.4,3.6,30.12,SW,224,1.0,14.0,88,0.00,,,0.00,Wunderground v.1.15,2013-01-02 04:40:00,
2013-01-01 23:45:00,6.7,3.9,30.12,SSW,210,1.0,14.0,88,0.00,,,0.00,Wunderground v.1.15,2013-01-02 04:45:00,
2013-01-01 23:50:00,6.7,3.7,30.12,SSW,205,2.0,2.0,87,0.00,,,0.00,Wunderground v.1.15,2013-01-02 04:50:00,
2013-01-01 23:55:00,6.7,3.7,30.12,SSE,167,2.0,14.0,87,0.00,,,0.00,Wunderground v.1.15,2013-01-02 04:55:00,